RH
92 91 90 91 90 90 89 86 85 84 82 79 78 80 78 60 44 38 45 49 48 49 50 32 33 35 37 43 43 45 99 96 71 54 41 30 39 30 41 50 38 29 29 46 57
92 91 90 90 88 88 88 86 86 84 82 81 80 84 78 48 47 31 50 53 50 51 38 34 37 38 40 42 51 61 73 75 44 65 83 62 56 38 36 60 42 32 36 46 50
90 90 86 86 85 86 86 82 77 74 76 76 78 80 54 46 28 28 44 50 52 48 37 42 40 41 49 44 47 53 64 38 41 49 62 77 65 42 46 51 39 36 33 46 53
87 86 84 82 83 84 81 75 73 70 72 66 69 41 34 44 33 28 46 47 40 40 36 38 38 47 53 48 50 85 49 45 40 37 44 50 61 65 48 42 47 63 60 57 56
68 73 63 62 56 76 77 75 72 61 49 57 45 36 38 24 29 33 33 35 33 37 36 39 44 50 56 52 54 64 60 60 44 43 40 42 49 53 49 42 66 61 58 58 58
51 46 24 18 20 61 74 75 50 42 65 54 43 37 27 34 32 34 36 34 35 37 38 41 44 49 60 58 67 65 81 66 43 42 46 50 45 50 45 53 72 65 57 54 58
37 43 16 18 15 30 52 43 29 27 39 66 47 50 26 28 30 33 33 33 40 42 43 46 54 56 49 54 54 93 88 56 49 45 48 51 59 51 43 65 61 68 55 50 55
21 24 20 18 17 20 29 33 30 28 33 54 43 47 25 27 27 30 33 33 39 48 56 56 59 56 59 48 55 76 66 65 52 50 45 53 55 43 46 66 70 59 60 48 51
18 22 22 23 22 17 25 29 29 36 51 35 32 36 22 22 24 32 31 35 41 45 53 48 51 55 48 57 54 50 55 55 53 53 52 55 64 50 52 56 77 65 58 58 56
15 24 24 26 27 17 24 24 21 26 32 31 27 27 14 26 30 35 28 40 41 36 39 47 51 53 51 65 77 70 70 58 76 77 65 58 54 49 61 58 65 65 72 55 63
18 25 26 24 31 28 27 22 19 22 31 31 38 27 22 27 32 27 31 39 40 34 52 51 54 68 58 62 64 68 60 61 54 95 68 52 53 63 65 72 74 64 65 73 62
22 26 25 22 33 32 44 54 69 75 32 32 34 34 22 29 27 25 30 48 45 43 50 47 53 49 46 59 62 54 66 52 45 48 50 56 55 46 59 55 63 63 78 74 69
27 24 17 20 30 46 62 71 76 77 44 19 25 25 26 29 29 28 30 40 55 34 56 61 52 49 48 56 68 52 67 62 57 44 51 53 59 55 50 60 73 67 67 76 78
28 17 18 18 32 48 57 68 73 73 60 22 19 22 24 24 17 22 32 43 37 43 57 55 43 60 50 54 63 70 62 63 57 56 64 57 63 60 58 72 69 65 67 75 89
28 19 16 21 32 50 67 68 74 53 50 22 25 24 25 28 27 19 35 36 43 41 36 38 48 71 64 64 59 62 60 79 62 74 68 63 72 71 58 62 68 60 74 84 91
27 23 16 27 40 46 71 72 48 67 42 35 29 31 32 27 29 28 41 28 38 38 34 33 31 60 61 56 60 56 90 66 53 75 73 72 71 76 62 62 60 67 70 84 92
32 33 20 28 40 52 73 51 83 62 28 29 34 34 37 33 30 32 65 71 58 58 56 43 34 40 46 52 47 61 79 73 73 74 69 68 72 90 71 64 68 63 73 78 84
34 42 26 30 33 55 43 64 55 45 42 34 36 33 35 40 36 37 51 55 52 62 64 72 54 39 38 61 71 71 89 83 72 67 62 68 81 90 62 68 61 64 62 67 78
39 42 25 31 32 39 46 78 54 49 43 43 39 34 32 38 48 51 50 63 58 63 77 86 52 36 43 54 59 68 86 96 88 69 68 66 63 51 52 65 68 68 70 78 77
39 41 35 25 30 41 83 68 51 44 44 46 48 44 46 45 54 52 51 65 65 52 65 84 86 43 46 54 53 64 57 87 77 88 72 76 77 81 74 82 81 82 78 71 69
36 31 31 22 26 54 81 63 53 41 45 51 50 55 50 62 54 54 55 40 54 56 59 82 87 64 55 75 78 69 79 79 83 82 86 78 83 94 91 94 91 87 80 77 78
42 73 30 19 72 83 68 58 46 44 42 46 48 50 56 50 62 62 52 46 44 49 87 77 85 85 80 73 82 68 77 73 80 81 83 83 87 96 92 94 86 84 80 76 84
52 44 28 33 80 72 56 52 48 45 46 45 50 49 51 53 74 48 44 37 43 56 88 82 83 79 60 74 50 66 61 66 84 88 88 91 83 78 88 92 84 83 82 80 80
73 91 78 84 79 49 49 52 51 48 49 46 49 44 57 60 52 64 52 44 48 56 62 66 86 89 81 83 82 83 81 75 84 79 87 92 85 76 78 92 89 86 83 82 83
75 80 57 73 71 64 63 60 49 50 49 47 50 49 59 90 79 72 56 55 51 61 62 81 88 84 68 67 76 83 88 86 90 83 84 92 90 82 85 91 94 93 83 81 84
80 77 74 74 58 63 66 67 50 51 53 50 60 49 53 79 62 74 68 68 73 68 87 84 80 74 82 82 74 83 76 80 78 74 80 89 86 74 76 70 78 95 86 84 87
76 66 54 78 71 60 59 62 58 69 49 46 51 57 59 53 52 53 55 58 62 86 88 90 89 83 82 64 89 90 91 85 82 79 80 81 86 82 75 74 84 91 94 93 90
Wind_Speed
15 17 18 18 19 18 19 19 19 18 16 16 15 12 12 8 9 11 15 15 14 18 18 17 11 14 10 11 12 10 4 7 17 21 19 16 17 21 12 14 20 18 14 5 9
15 17 18 18 19 19 20 19 18 18 17 14 12 10 9 5 3 14 13 16 17 18 15 15 13 16 6 8 5 9 9 8 15 8 3 14 14 17 16 14 23 16 9 5 12
17 18 19 19 20 19 20 20 19 18 15 11 8 9 8 1 0 11 16 18 20 15 9 8 11 10 8 7 10 8 17 18 17 13 8 4 14 19 17 21 24 19 11 11 12
17 18 19 19 20 19 20 20 20 14 11 8 7 7 7 1 3 13 19 20 17 11 8 9 10 10 7 7 5 7 16 17 17 17 19 11 4 19 17 19 3 2 7 10 12
17 19 20 20 20 19 20 21 15 9 8 8 7 8 4 8 10 17 18 20 13 11 8 8 8 9 8 10 9 14 14 17 17 14 19 15 16 20 15 14 7 10 8 10 12
18 20 21 22 21 21 21 19 8 7 7 6 7 5 10 14 16 18 18 20 16 9 9 5 6 9 9 11 9 8 16 18 13 16 13 13 15 16 14 9 5 5 12 14 15
19 21 21 23 20 23 22 12 5 5 6 4 7 3 8 12 17 20 22 27 12 10 7 4 5 7 12 11 4 9 10 7 9 14 12 7 15 19 16 5 8 12 14 17 19
19 20 20 23 19 24 20 8 6 4 4 4 8 2 3 12 20 18 23 26 13 5 5 4 5 7 6 10 6 5 3 4 4 5 7 8 9 5 9 10 9 9 12 16 19
19 19 20 22 19 24 13 7 7 3 1 7 6 3 3 15 30 22 23 20 17 6 3 3 3 3 6 8 5 1 5 4 2 7 4 10 4 3 9 9 7 4 11 11 16
19 17 19 21 17 23 6 14 13 14 3 4 12 3 9 15 18 14 29 16 6 9 0 4 3 5 9 9 5 9 6 7 6 9 9 8 9 1 4 8 5 1 7 9 12
19 15 17 20 12 21 6 1 2 2 13 6 2 3 12 23 6 24 32 14 7 5 8 4 5 10 14 8 6 7 7 8 3 5 9 9 7 5 3 4 3 8 11 8 12
18 15 18 17 6 16 11 6 4 2 5 4 2 5 15 16 9 21 32 9 7 11 12 1 8 13 13 6 10 5 7 6 5 3 6 2 5 9 10 4 3 6 3 6 8
16 16 17 13 4 10 14 6 1 3 1 5 3 7 11 11 7 18 22 12 7 10 9 4 8 13 8 7 12 6 7 8 7 11 3 7 4 7 6 6 3 4 7 7 5
14 16 16 9 2 6 4 8 2 2 1 12 9 7 14 10 4 15 22 5 5 7 8 2 9 10 7 6 12 3 10 9 8 7 2 6 4 5 6 6 4 4 7 8 1
12 15 15 12 2 3 7 2 3 0 2 13 6 8 14 10 9 15 20 5 7 8 6 7 10 11 11 9 9 5 12 8 4 3 6 3 1 5 5 5 4 4 4 7 1
11 10 16 7 5 7 2 4 1 1 3 5 6 12 11 11 8 15 13 12 1 4 5 7 5 3 8 12 5 9 7 4 1 2 2 4 5 7 7 10 11 10 2 4 4
9 1 18 9 4 7 3 2 1 4 6 9 7 12 9 13 8 13 10 15 12 8 10 12 3 3 10 9 3 14 6 2 2 1 2 3 0 5 10 12 11 13 12 7 3
5 1 12 15 9 1 1 0 6 2 4 6 8 12 8 15 8 15 9 9 13 11 3 8 3 11 13 6 7 7 6 3 2 1 4 1 3 4 13 12 14 13 8 8 8
1 1 6 17 8 2 1 6 2 1 5 8 8 4 5 9 9 10 9 9 8 13 6 8 4 10 8 9 5 5 5 5 3 2 3 2 5 4 19 20 21 18 15 13 14
1 2 6 14 6 1 5 4 1 2 4 3 6 5 6 10 10 11 8 3 8 12 2 5 6 4 8 4 3 4 8 2 2 3 3 5 5 7 19 19 19 19 18 16 14
1 1 10 7 5 6 4 3 2 1 3 4 3 4 3 5 6 6 6 3 9 12 2 4 2 8 3 8 9 7 5 5 2 3 4 3 4 8 12 13 16 16 17 17 15
2 1 12 5 4 3 3 3 1 2 2 1 0 2 2 5 4 4 4 3 7 11 6 5 3 5 3 9 5 5 8 8 5 5 2 3 4 8 12 12 15 17 17 17 17
2 1 8 4 3 3 3 3 2 2 3 3 2 3 2 3 3 4 5 4 9 7 7 7 2 5 0 3 6 6 12 10 7 4 6 4 4 11 13 14 18 18 18 17 18
2 1 4 5 2 4 4 2 2 1 1 2 1 1 5 1 1 4 6 4 11 5 12 5 2 2 5 7 9 6 12 10 5 3 8 7 5 17 20 18 19 19 18 16 16
3 2 2 2 3 5 2 2 2 2 1 0 2 3 4 3 3 2 4 9 4 7 6 4 2 3 11 5 8 8 11 12 7 8 6 7 5 14 18 17 15 13 17 17 18
3 4 3 3 4 3 2 2 3 2 2 2 1 4 3 4 2 4 4 3 3 7 4 6 3 6 3 4 6 9 16 9 9 10 7 9 3 17 16 13 14 14 17 18 17
3 4 3 2 2 1 2 4 3 1 3 3 2 4 5 6 5 10 11 13 12 7 4 5 6 6 2 5 4 3 10 10 5 11 8 6 10 17 18 16 13 16 16 16 17
Wind_Direction
8 4 360 356 353 352 348 347 344 342 342 341 341 346 346 358 55 45 30 11 355 343 334 331 329 342 302 265 250 266 269 243 247 256 251 250 229 240 214 253 266 246 254 15 328
6 2 359 354 352 352 349 347 344 343 342 343 343 343 344 328 38 39 5 353 345 337 333 336 334 332 308 263 251 230 237 251 249 205 288 309 291 271 217 221 250 223 219 300 333
3 1 358 355 352 352 350 349 346 345 348 352 353 348 350 296 266 7 347 344 338 334 326 318 314 324 302 279 243 254 245 262 262 278 198 239 285 274 263 225 230 238 259 309 318
2 359 357 355 353 353 352 349 345 351 2 19 14 11 20 3 32 344 341 341 337 331 320 324 324 329 301 296 308 299 280 280 275 266 272 268 284 279 276 249 260 315 329 314 306
1 358 357 358 358 354 352 351 357 20 34 33 22 27 18 58 11 339 348 359 349 334 327 324 324 328 311 313 299 264 280 260 261 261 259 265 260 256 267 273 88 3 348 335 318
360 358 360 1 3 357 352 353 23 43 35 24 19 40 27 47 353 352 356 343 329 322 316 309 328 316 293 295 289 306 284 275 236 244 253 255 259 239 252 217 243 328 329 337 327
358 359 0 359 5 358 354 6 37 46 34 10 3 7 34 26 353 360 349 339 320 305 303 334 320 302 318 300 264 266 282 242 228 233 236 245 247 239 237 189 275 261 291 314 324
1 357 358 357 4 0 1 54 63 53 46 6 348 339 49 4 356 355 350 341 338 299 273 310 305 291 280 307 278 265 242 274 106 209 221 218 258 238 172 180 220 248 293 289 316
3 358 357 355 2 2 15 67 51 36 89 21 8 336 35 341 356 354 350 329 318 323 286 330 320 322 312 324 252 1 329 339 303 60 270 212 271 333 173 174 168 244 286 309 308
4 359 357 355 360 3 22 116 61 46 335 318 16 240 3 342 334 341 345 336 315 334 202 23 359 342 11 1 9 328 340 321 11 342 329 217 255 318 158 162 148 269 284 308 323
2 3 356 352 1 4 25 250 294 81 36 53 20 39 333 336 354 359 351 335 337 358 3 29 14 10 344 333 325 293 306 293 333 281 305 229 238 173 144 158 123 336 294 289 319
1 3 356 351 355 16 46 65 47 9 84 40 350 322 359 345 342 3 356 3 348 10 354 177 34 351 328 306 316 320 305 7 276 287 305 19 231 209 187 187 161 253 309 298 320
359 2 360 354 0 25 61 49 21 134 279 37 5 338 356 346 8 0 2 332 349 352 0 11 356 330 329 18 348 26 1 348 330 311 229 305 191 185 180 155 178 350 321 317 310
2 4 6 8 51 9 51 358 123 142 241 4 355 23 349 343 14 355 5 345 353 331 338 331 351 354 351 7 354 333 1 331 314 305 326 349 110 92 166 170 185 286 339 326 171
358 8 9 37 15 40 325 47 143 271 296 348 3 329 355 39 336 354 352 341 5 327 309 17 352 357 355 350 333 336 330 306 299 327 310 45 305 8 192 204 211 271 340 321 156
355 20 15 25 38 357 17 131 188 267 10 357 346 350 0 15 12 340 0 11 26 326 339 336 304 329 345 320 2 337 317 106 63 324 214 357 321 48 17 345 330 339 272 291 171
344 299 16 38 344 335 140 227 333 49 356 348 336 340 347 358 6 1 12 36 32 358 11 325 19 355 356 341 338 3 332 125 133 259 54 343 4 34 351 6 353 316 291 216 194
353 213 13 16 353 41 173 294 55 6 345 344 326 333 18 10 16 352 359 20 30 7 327 354 32 7 351 356 310 344 341 16 73 125 111 154 67 110 34 20 11 6 325 226 150
3 193 6 356 4 46 254 51 55 344 330 321 314 341 10 19 351 352 13 5 12 14 8 350 313 337 353 334 308 351 4 338 284 205 229 41 82 144 8 9 6 4 2 0 359
219 134 20 355 14 61 66 101 92 336 318 297 355 11 337 350 354 358 355 11 345 1 331 21 295 351 320 300 68 335 329 306 18 342 98 88 71 3 351 351 352 354 356 351 348
117 156 356 10 44 54 78 91 140 69 334 339 348 320 344 344 334 328 323 347 352 340 338 348 297 315 284 22 1 3 23 350 280 343 345 121 85 5 349 358 347 353 353 349 341
112 325 350 33 41 42 84 115 87 10 360 356 36 354 341 336 308 300 308 293 351 344 337 341 316 303 342 325 303 14 19 14 346 1 13 327 88 21 9 2 359 1 355 353 351
75 1 351 33 94 96 123 100 70 41 25 5 17 8 29 318 313 274 318 332 335 345 351 344 30 328 39 183 59 13 350 332 289 253 21 318 90 18 4 9 9 3 356 358 1
108 53 22 46 33 112 135 109 129 101 136 350 337 16 355 312 245 308 315 316 338 354 346 324 310 335 324 321 317 329 334 325 319 325 328 22 54 4 359 2 3 358 354 357 7
25 82 29 44 50 94 85 124 130 180 150 299 185 45 358 307 297 288 314 317 321 3 9 16 327 308 303 286 72 34 5 21 28 5 24 13 51 6 350 349 3 350 354 360 6
124 141 83 80 102 113 353 158 177 167 210 168 173 345 293 237 239 295 332 292 318 335 23 346 327 336 283 187 103 56 18 10 25 8 12 354 28 357 342 347 353 2 357 359 358
122 98 117 91 124 172 192 160 170 126 219 272 331 329 282 270 294 288 277 273 273 299 321 348 337 342 308 329 282 191 6 1 66 34 346 13 336 334 338 342 343 358 358 352 348